Time,TemperatureF,DewpointF,PressureIn,WindDirection,WindDirectionDegrees,WindSpeedMPH,WindSpeedGustMPH,Humidity,HourlyPrecipIn,Conditions,Clouds,dailyrainin,SoftwareType,DateUTC
2013-02-01 00:00:00,31.8,-4.7,29.50,West,262,6.9,9.6,20,0.00,,CLR,0.00,VWS V14.00,2013-02-01 05:00:00,
2013-02-01 00:01:00,31.8,-4.7,29.50,West,262,6.9,10.1,20,0.00,,FEW055,0.00,VWS V14.00,2013-02-01 05:01:00,
2013-02-01 00:02:00,31.8,-4.7,29.50,West,267,6.3,10.1,20,0.00,,FEW055,0.00,VWS V14.00,2013-02-01 05:02:00,
2013-02-01 00:07:00,31.8,-4.7,29.50,WNW,292,10.1,14.3,20,0.00,,FEW055,0.00,VWS V14.00,2013-02-01 05:07:00,
2013-02-01 00:12:00,31.5,-7.2,29.50,WNW,302,5.8,13.9,18,0.00,,FEW055,0.00,VWS V14.00,2013-02-01 05:12:00,
2013-02-01 00:17:00,31.5,-7.2,29.50,WNW,282,5.8,8.7,18,0.00,,FEW055,0.00,VWS V14.00,2013-02-01 05:17:00,
2013-02-01 00:22:00,31.5,-7.2,29.50,SSW,201,4.9,11.0,18,0.00,,FEW055,0.00,VWS V14.00,2013-02-01 05:22:00,
2013-02-01 00:27:00,31.3,-7.3,29.50,WSW,257,8.3,10.1,18,0.00,,FEW055,0.00,VWS V14.00,2013-02-01 05:27:00,
2013-02-01 00:32:00,31.1,-7.4,29.50,NW,306,7.4,8.3,18,0.00,,FEW055,0.00,VWS V14.00,2013-02-01 05:32:00,
2013-02-01 00:37:00,31.3,-11.0,29.50,West,262,12.5,12.5,15,0.00,,FEW055,0.00,VWS V14.00,2013-02-01 05:37:00,
2013-02-01 00:42:00,30.9,-11.3,29.50,WSW,253,8.3,16.8,15,0.00,,FEW055,0.00,VWS V14.00,2013-02-01 05:42:00,
2013-02-01 00:47:00,30.9,-11.3,29.50,WNW,285,6.9,8.7,15,0.00,,FEW055,0.00,VWS V14.00,2013-02-01 05:47:00,
2013-02-01 00:52:00,30.7,-11.4,29.50,WSW,254,7.8,10.5,15,0.00,,FEW055,0.00,VWS V14.00,2013-02-01 05:52:00,
2013-02-01 00:57:00,30.7,-11.4,29.50,West,272,8.3,8.7,15,0.00,,FEW055,0.00,VWS V14.00,2013-02-01 05:57:00,
2013-02-01 01:02:00,30.4,-11.7,29.50,WSW,257,9.2,12.1,15,0.00,,FEW055,0.00,VWS V14.00,2013-02-01 06:02:00,
2013-02-01 01:07:00,30.2,-11.9,29.50,West,268,7.4,7.4,15,0.00,,FEW055,0.00,VWS V14.00,2013-02-01 06:07:00,
2013-02-01 01:12:00,30.2,-11.9,29.50,West,262,6.7,11.6,15,0.00,,FEW055,0.00,VWS V14.00,2013-02-01 06:12:00,
2013-02-01 01:17:00,30.0,-12.0,29.50,WSW,241,8.3,11.0,15,0.00,,FEW055,0.00,VWS V14.00,2013-02-01 06:17:00,
2013-02-01 01:22:00,30.2,-11.9,29.53,West,268,6.9,7.8,15,0.00,,FEW055,0.00,VWS V14.00,2013-02-01 06:22:00,
2013-02-01 01:27:00,30.6,-11.6,29.53,WSW,258,6.3,9.6,15,0.00,,FEW055,0.00,VWS V14.00,2013-02-01 06:27:00,
2013-02-01 01:32:00,30.4,-11.7,29.53,WNW,292,8.7,13.4,15,0.00,,FEW055,0.00,VWS V14.00,2013-02-01 06:32:00,
2013-02-01 01:37:00,30.4,-11.7,29.53,WNW,284,6.3,7.4,15,0.00,,FEW055,0.00,VWS V14.00,2013-02-01 06:37:00,
2013-02-01 01:42:00,30.2,-11.9,29.53,WSW,252,7.8,9.2,15,0.00,,FEW055,0.00,VWS V14.00,2013-02-01 06:42:00,
2013-02-01 01:47:00,30.2,-11.9,29.53,West,272,9.2,11.0,15,0.00,,FEW055,0.00,VWS V14.00,2013-02-01 06:47:00,
2013-02-01 01:52:00,30.4,-11.7,29.53,West,278,7.8,11.2,15,0.00,,FEW055,0.00,VWS V14.00,2013-02-01 06:52:00,
2013-02-01 01:57:00,30.6,-11.6,29.53,West,276,4.0,7.4,15,0.00,,FEW055,0.00,VWS V14.00,2013-02-01 06:57:00,
2013-02-01 02:02:00,30.4,-11.7,29.53,WSW,250,5.4,6.9,15,0.00,,FEW055,0.00,VWS V14.00,2013-02-01 07:02:00,
2013-02-01 02:07:00,29.8,-12.2,29.53,WSW,256,9.2,11.0,15,0.00,,FEW055,0.00,VWS V14.00,2013-02-01 07:07:00,
2013-02-01 02:12:00,29.5,-12.5,29.53,WSW,250,7.4,15.9,15,0.00,,FEW055,0.00,VWS V14.00,2013-02-01 07:12:00,
2013-02-01 02:17:00,29.3,-12.6,29.53,West,277,7.4,7.8,15,0.00,,FEW055,0.00,VWS V14.00,2013-02-01 07:17:00,
2013-02-01 02:22:00,29.5,-12.5,29.53,WNW,293,10.1,10.5,15,0.00,,FEW055,0.00,VWS V14.00,2013-02-01 07:22:00,
2013-02-01 02:27:00,29.5,-12.5,29.53,WSW,257,13.0,15.4,15,0.00,,FEW055,0.00,VWS V14.00,2013-02-01 07:27:00,
2013-02-01 02:32:00,29.7,-12.3,29.53,WSW,254,6.9,12.5,15,0.00,,FEW055,0.00,VWS V14.00,2013-02-01 07:32:00,
2013-02-01 02:37:00,29.7,-12.3,29.53,West,273,7.8,12.1,15,0.00,,FEW055,0.00,VWS V14.00,2013-02-01 07:37:00,
2013-02-01 02:42:00,29.7,-12.3,29.53,West,259,4.5,5.8,15,0.00,,FEW055,0.00,VWS V14.00,2013-02-01 07:42:00,
2013-02-01 02:47:00,29.7,-12.3,29.53,West,266,7.8,7.8,15,0.00,,FEW055,0.00,VWS V14.00,2013-02-01 07:47:00,
2013-02-01 02:52:00,29.3,-12.6,29.53,NW,325,6.9,11.6,15,0.00,,FEW055,0.00,VWS V14.00,2013-02-01 07:52:00,
2013-02-01 02:57:00,29.3,-11.3,29.53,WSW,246,5.4,6.7,16,0.00,,FEW055,0.00,VWS V14.00,2013-02-01 07:57:00,
2013-02-01 03:02:00,29.1,-11.5,29.53,WSW,258,5.4,8.3,16,0.00,,FEW055,0.00,VWS V14.00,2013-02-01 08:02:00,
2013-02-01 03:07:00,29.3,-11.3,29.53,WSW,251,4.9,8.3,16,0.00,,FEW055,0.00,VWS V14.00,2013-02-01 08:07:00,
2013-02-01 03:12:00,29.1,-11.5,29.53,West,272,6.7,9.2,16,0.00,,FEW055,0.00,VWS V14.00,2013-02-01 08:12:00,
2013-02-01 03:17:00,28.9,-11.6,29.53,WSW,251,12.5,14.3,16,0.00,,FEW055,0.00,VWS V14.00,2013-02-01 08:17:00,
2013-02-01 03:22:00,28.9,-11.6,29.56,West,259,5.8,11.0,16,0.00,,FEW055,0.00,VWS V14.00,2013-02-01 08:22:00,
2013-02-01 03:27:00,29.1,-11.5,29.56,WNW,293,4.9,9.6,16,0.00,,FEW055,0.00,VWS V14.00,2013-02-01 08:27:00,
2013-02-01 03:32:00,29.3,-12.6,29.56,West,266,4.5,7.4,15,0.00,,FEW055,0.00,VWS V14.00,2013-02-01 08:32:00,
2013-02-01 03:37:00,29.3,-12.6,29.53,West,278,4.5,6.3,15,0.00,,FEW055,0.00,VWS V14.00,2013-02-01 08:37:00,
2013-02-01 03:42:00,29.5,-12.5,29.53,West,274,6.9,6.9,15,0.00,,FEW055,0.00,VWS V14.00,2013-02-01 08:42:00,
2013-02-01 03:47:00,29.3,-12.6,29.53,WSW,253,4.9,4.9,15,0.00,,FEW055,0.00,VWS V14.00,2013-02-01 08:47:00,
2013-02-01 03:52:00,29.3,-12.6,29.56,West,259,3.6,8.3,15,0.00,,FEW055,0.00,VWS V14.00,2013-02-01 08:52:00,
2013-02-01 03:57:00,29.1,-11.5,29.56,West,260,4.0,4.9,16,0.00,,FEW055,0.00,VWS V14.00,2013-02-01 08:57:00,
2013-02-01 04:02:00,28.9,-11.6,29.56,West,263,4.5,4.9,16,0.00,,FEW055,0.00,VWS V14.00,2013-02-01 09:02:00,
2013-02-01 04:07:00,28.8,-11.8,29.56,West,266,5.8,9.2,16,0.00,,FEW055,0.00,VWS V14.00,2013-02-01 09:07:00,
2013-02-01 04:12:00,28.8,-11.8,29.56,WSW,246,3.6,5.8,16,0.00,,FEW055,0.00,VWS V14.00,2013-02-01 09:12:00,
2013-02-01 04:17:00,28.8,-11.8,29.56,WSW,257,3.6,4.0,16,0.00,,FEW055,0.00,VWS V14.00,2013-02-01 09:17:00,
2013-02-01 04:22:00,28.6,-11.9,29.53,WSW,248,4.0,4.5,16,0.00,,FEW055,0.00,VWS V14.00,2013-02-01 09:22:00,
2013-02-01 04:27:00,28.6,-11.9,29.53,WSW,251,0.0,4.0,16,0.00,,FEW055,0.00,VWS V14.00,2013-02-01 09:27:00,
2013-02-01 04:32:00,28.4,-12.1,29.53,WSW,256,4.5,5.4,16,0.00,,FEW055,0.00,VWS V14.00,2013-02-01 09:32:00,
2013-02-01 04:37:00,28.4,-9.7,29.53,SW,222,3.1,4.0,18,0.00,,FEW055,0.00,VWS V14.00,2013-02-01 09:37:00,
2013-02-01 04:42:00,28.6,-9.5,29.53,WSW,251,3.1,3.6,18,0.00,,FEW055,0.00,VWS V14.00,2013-02-01 09:42:00,
2013-02-01 04:47:00,28.6,-9.5,29.53,WSW,257,3.1,5.4,18,0.00,,FEW055,0.00,VWS V14.00,2013-02-01 09:47:00,
2013-02-01 04:52:00,28.4,-9.7,29.53,West,266,2.7,4.0,18,0.00,,FEW055,0.00,VWS V14.00,2013-02-01 09:52:00,
2013-02-01 04:57:00,28.6,-9.5,29.53,West,264,4.0,4.0,18,0.00,,FEW055,0.00,VWS V14.00,2013-02-01 09:57:00,
2013-02-01 05:02:00,28.4,-9.7,29.53,SW,214,3.6,4.0,18,0.00,,FEW055,0.00,VWS V14.00,2013-02-01 10:02:00,
2013-02-01 05:07:00,28.4,-9.7,29.53,West,262,3.1,5.4,18,0.00,,FEW055,0.00,VWS V14.00,2013-02-01 10:07:00,
2013-02-01 05:12:00,28.2,-9.8,29.53,SW,235,3.6,3.6,18,0.00,,FEW055,0.00,VWS V14.00,2013-02-01 10:12:00,
2013-02-01 05:17:00,28.0,-10.0,29.53,West,276,4.5,4.5,18,0.00,,FEW055,0.00,VWS V14.00,2013-02-01 10:17:00,
2013-02-01 05:22:00,28.0,-10.0,29.56,SW,234,3.1,4.5,18,0.00,,FEW055,0.00,VWS V14.00,2013-02-01 10:22:00,
2013-02-01 05:27:00,28.0,-10.0,29.56,WSW,237,8.7,8.7,18,0.00,,FEW055,0.00,VWS V14.00,2013-02-01 10:27:00,
2013-02-01 05:32:00,28.2,-9.8,29.56,SSW,208,4.0,4.0,18,0.00,,FEW055,0.00,VWS V14.00,2013-02-01 10:32:00,
2013-02-01 05:37:00,28.2,-9.8,29.56,WSW,243,4.9,4.9,18,0.00,,FEW055,0.00,VWS V14.00,2013-02-01 10:37:00,
2013-02-01 05:42:00,28.2,-9.8,29.56,WSW,239,4.5,4.9,18,0.00,,FEW055,0.00,VWS V14.00,2013-02-01 10:42:00,
2013-02-01 05:47:00,28.2,-9.8,29.56,West,265,0.0,4.9,18,0.00,,FEW055,0.00,VWS V14.00,2013-02-01 10:47:00,
2013-02-01 05:52:00,28.0,-10.0,29.56,West,264,3.6,5.4,18,0.00,,FEW055,0.00,VWS V14.00,2013-02-01 10:52:00,
2013-02-01 05:57:00,28.0,-10.0,29.56,West,273,3.6,3.6,18,0.00,,FEW055,0.00,VWS V14.00,2013-02-01 10:57:00,
2013-02-01 06:02:00,28.0,-10.0,29.56,WSW,248,4.0,5.8,18,0.00,,FEW055,0.00,VWS V14.00,2013-02-01 11:02:00,
2013-02-01 06:07:00,27.9,-10.1,29.56,WSW,247,5.4,5.8,18,0.00,,FEW055,0.00,VWS V14.00,2013-02-01 11:07:00,
2013-02-01 06:12:00,27.7,-10.3,29.56,West,271,4.5,5.8,18,0.00,,FEW055,0.00,VWS V14.00,2013-02-01 11:12:00,
2013-02-01 06:17:00,27.7,-10.3,29.56,SSW,213,5.4,6.9,18,0.00,,FEW055,0.00,VWS V14.00,2013-02-01 11:17:00,
2013-02-01 06:22:00,27.5,-9.3,29.56,WSW,242,4.9,5.4,19,0.00,,FEW055,0.00,VWS V14.00,2013-02-01 11:22:00,
2013-02-01 06:27:00,27.5,-9.3,29.56,West,271,2.7,6.9,19,0.00,,FEW055,0.00,VWS V14.00,2013-02-01 11:27:00,
2013-02-01 06:32:00,27.7,-7.2,29.56,West,275,0.0,4.9,21,0.00,,FEW055,0.00,VWS V14.00,2013-02-01 11:32:00,
2013-02-01 06:37:00,27.7,-10.3,29.59,West,264,4.5,5.8,18,0.00,,FEW055,0.00,VWS V14.00,2013-02-01 11:37:00,
2013-02-01 06:42:00,27.5,-7.3,29.59,West,269,4.5,4.5,21,0.00,,FEW055,0.00,VWS V14.00,2013-02-01 11:42:00,
2013-02-01 06:47:00,27.5,-7.3,29.59,WNW,283,3.1,6.9,21,0.00,,FEW055,0.00,VWS V14.00,2013-02-01 11:47:00,
2013-02-01 06:52:00,27.5,-7.3,29.59,WSW,248,6.3,6.9,21,0.00,,FEW055,0.00,VWS V14.00,2013-02-01 11:52:00,
2013-02-01 06:57:00,27.5,-7.3,29.59,West,269,4.0,4.0,21,0.00,,FEW055,0.00,VWS V14.00,2013-02-01 11:57:00,
2013-02-01 07:02:00,27.5,-7.3,29.59,WSW,252,3.6,4.5,21,0.00,,FEW055,0.00,VWS V14.00,2013-02-01 12:02:00,
2013-02-01 07:07:00,27.7,-7.2,29.59,WSW,242,8.7,8.7,21,0.00,,FEW055,0.00,VWS V14.00,2013-02-01 12:07:00,
2013-02-01 07:12:00,27.5,-7.3,29.59,WNW,299,5.4,8.3,21,0.00,,FEW055,0.00,VWS V14.00,2013-02-01 12:12:00,
2013-02-01 07:17:00,27.7,-7.2,29.59,West,271,4.5,7.8,21,0.00,,FEW055,0.00,VWS V14.00,2013-02-01 12:17:00,
2013-02-01 07:22:00,27.9,-7.0,29.59,West,264,4.0,4.0,21,0.00,,FEW055,0.00,VWS V14.00,2013-02-01 12:22:00,
2013-02-01 07:27:00,27.9,-7.0,29.59,WSW,238,3.6,4.5,21,0.00,,FEW055,0.00,VWS V14.00,2013-02-01 12:27:00,
2013-02-01 07:32:00,28.0,-6.8,29.59,WSW,239,0.0,3.6,21,0.00,,FEW055,0.00,VWS V14.00,2013-02-01 12:32:00,
2013-02-01 07:37:00,28.2,-6.7,29.62,SW,222,3.6,6.3,21,0.00,,FEW055,0.00,VWS V14.00,2013-02-01 12:37:00,
2013-02-01 07:42:00,28.0,-6.8,29.62,WNW,297,3.6,4.0,21,0.00,,FEW055,0.00,VWS V14.00,2013-02-01 12:42:00,
2013-02-01 07:47:00,28.4,-6.5,29.62,WSW,240,7.4,7.4,21,0.00,,FEW055,0.00,VWS V14.00,2013-02-01 12:47:00,
2013-02-01 07:52:00,28.4,-6.5,29.62,WNW,284,2.7,5.8,21,0.00,,FEW055,0.00,VWS V14.00,2013-02-01 12:52:00,
2013-02-01 07:57:00,28.6,-6.4,29.62,WSW,246,4.9,7.8,21,0.00,,FEW055,0.00,VWS V14.00,2013-02-01 12:57:00,
2013-02-01 08:02:00,28.6,-6.4,29.62,West,262,4.5,6.9,21,0.00,,FEW055,0.00,VWS V14.00,2013-02-01 13:02:00,
2013-02-01 08:07:00,28.8,-6.2,29.62,West,261,4.0,7.8,21,0.00,,FEW055,0.00,VWS V14.00,2013-02-01 13:07:00,
2013-02-01 08:12:00,28.8,-6.2,29.62,West,262,4.0,4.0,21,0.00,,FEW055,0.00,VWS V14.00,2013-02-01 13:12:00,
2013-02-01 08:17:00,28.9,-6.1,29.62,West,277,3.6,5.4,21,0.00,,FEW055,0.00,VWS V14.00,2013-02-01 13:17:00,
2013-02-01 08:22:00,29.1,-5.9,29.62,WSW,237,4.9,5.4,21,0.00,,FEW055,0.00,VWS V14.00,2013-02-01 13:22:00,
2013-02-01 08:27:00,29.1,-5.9,29.62,West,273,3.1,4.5,21,0.00,,FEW055,0.00,VWS V14.00,2013-02-01 13:27:00,
2013-02-01 08:32:00,29.3,-6.8,29.62,NW,304,7.8,9.2,20,0.00,,FEW055,0.00,VWS V14.00,2013-02-01 13:32:00,
2013-02-01 08:37:00,29.5,-6.6,29.65,West,266,5.4,5.8,20,0.00,,FEW055,0.00,VWS V14.00,2013-02-01 13:37:00,
2013-02-01 08:42:00,29.7,-8.6,29.65,West,271,4.0,6.7,18,0.00,,FEW055,0.00,VWS V14.00,2013-02-01 13:42:00,
2013-02-01 08:47:00,29.7,-8.6,29.65,West,266,5.8,5.8,18,0.00,,FEW055,0.00,VWS V14.00,2013-02-01 13:47:00,
2013-02-01 08:52:00,29.7,-8.6,29.62,West,269,7.4,11.2,18,0.00,,FEW055,0.00,VWS V14.00,2013-02-01 13:52:00,
2013-02-01 08:57:00,29.7,-8.6,29.62,WSW,257,5.4,5.4,18,0.00,,FEW055,0.00,VWS V14.00,2013-02-01 13:57:00,
2013-02-01 09:02:00,29.7,-8.6,29.62,West,275,7.8,9.2,18,0.00,,FEW055,0.00,VWS V14.00,2013-02-01 14:02:00,
2013-02-01 09:07:00,29.7,-8.6,29.62,West,281,6.9,6.9,18,0.00,,FEW055,0.00,VWS V14.00,2013-02-01 14:07:00,
2013-02-01 09:12:00,30.2,-8.2,29.62,NNW,328,7.8,7.8,18,0.00,,FEW055,0.00,VWS V14.00,2013-02-01 14:12:00,
2013-02-01 09:17:00,30.9,-7.6,29.62,WNW,301,6.3,7.8,18,0.00,,FEW055,0.00,VWS V14.00,2013-02-01 14:17:00,
2013-02-01 09:22:00,31.3,-7.3,29.62,NW,307,8.7,8.7,18,0.00,,FEW055,0.00,VWS V14.00,2013-02-01 14:22:00,
2013-02-01 09:27:00,30.9,-7.6,29.62,WSW,256,4.9,8.7,18,0.00,,FEW055,0.00,VWS V14.00,2013-02-01 14:27:00,
2013-02-01 09:32:00,30.7,-7.7,29.62,West,263,11.2,11.2,18,0.00,,FEW055,0.00,VWS V14.00,2013-02-01 14:32:00,
2013-02-01 09:37:00,30.9,-7.6,29.62,West,265,2.7,4.5,18,0.00,,FEW055,0.00,VWS V14.00,2013-02-01 14:37:00,
2013-02-01 09:42:00,31.5,-7.2,29.62,WSW,243,6.9,7.4,18,0.00,,FEW055,0.00,VWS V14.00,2013-02-01 14:42:00,
2013-02-01 09:47:00,31.5,-10.9,29.62,WNW,294,10.5,10.5,15,0.00,,FEW055,0.00,VWS V14.00,2013-02-01 14:47:00,
2013-02-01 09:52:00,31.5,-10.9,29.62,WNW,300,3.1,4.5,15,0.00,,FEW055,0.00,VWS V14.00,2013-02-01 14:52:00,
2013-02-01 09:57:00,31.8,-10.6,29.62,WNW,296,5.4,6.9,15,0.00,,FEW055,0.00,VWS V14.00,2013-02-01 14:57:00,
2013-02-01 10:02:00,32.0,-10.4,29.62,WSW,255,4.5,6.9,15,0.00,,FEW055,0.00,VWS V14.00,2013-02-01 15:02:00,
2013-02-01 10:07:00,32.0,-10.4,29.62,NNW,335,3.6,5.8,15,0.00,,FEW055,0.00,VWS V14.00,2013-02-01 15:07:00,
2013-02-01 10:12:00,32.2,-10.3,29.62,West,261,4.5,4.9,15,0.00,,FEW055,0.00,VWS V14.00,2013-02-01 15:12:00,
2013-02-01 10:17:00,32.2,-10.3,29.62,WSW,237,8.7,13.9,15,0.00,,FEW055,0.00,VWS V14.00,2013-02-01 15:17:00,
2013-02-01 10:22:00,32.2,-10.3,29.62,West,271,6.7,8.3,15,0.00,,FEW055,0.00,VWS V14.00,2013-02-01 15:22:00,
2013-02-01 10:27:00,32.4,-10.1,29.62,West,266,3.1,6.7,15,0.00,,FEW055,0.00,VWS V14.00,2013-02-01 15:27:00,
2013-02-01 10:32:00,32.2,-10.3,29.62,West,275,3.1,6.9,15,0.00,,FEW055,0.00,VWS V14.00,2013-02-01 15:32:00,
2013-02-01 10:37:00,32.5,-10.0,29.62,WNW,300,3.6,4.0,15,0.00,,FEW055,0.00,VWS V14.00,2013-02-01 15:37:00,
2013-02-01 10:42:00,32.5,-10.0,29.62,West,272,6.7,11.2,15,0.00,,FEW055,0.00,VWS V14.00,2013-02-01 15:42:00,
2013-02-01 10:47:00,32.7,-9.8,29.62,WNW,289,6.3,9.2,15,0.00,,FEW055,0.00,VWS V14.00,2013-02-01 15:47:00,
2013-02-01 10:52:00,32.7,-9.8,29.62,WNW,287,3.6,6.3,15,0.00,,FEW055,0.00,VWS V14.00,2013-02-01 15:52:00,
2013-02-01 10:57:00,32.9,-9.7,29.62,WSW,258,4.9,6.3,15,0.00,,FEW055,0.00,VWS V14.00,2013-02-01 15:57:00,
2013-02-01 11:02:00,33.1,-9.5,29.62,West,267,6.3,9.2,15,0.00,,FEW055,0.00,VWS V14.00,2013-02-01 16:02:00,
2013-02-01 11:07:00,33.1,-9.5,29.65,WNW,303,3.1,5.4,15,0.00,,FEW055,0.00,VWS V14.00,2013-02-01 16:07:00,
2013-02-01 11:12:00,33.1,-9.5,29.65,WNW,300,2.7,4.5,15,0.00,,FEW055,0.00,VWS V14.00,2013-02-01 16:12:00,
2013-02-01 11:17:00,33.1,-9.5,29.65,WSW,252,4.9,5.8,15,0.00,,FEW055,0.00,VWS V14.00,2013-02-01 16:17:00,
2013-02-01 11:22:00,33.3,-9.4,29.62,West,263,3.6,4.9,15,0.00,,FEW055,0.00,VWS V14.00,2013-02-01 16:22:00,
2013-02-01 11:27:00,33.1,-9.5,29.62,NW,311,4.0,5.4,15,0.00,,FEW055,0.00,VWS V14.00,2013-02-01 16:27:00,
2013-02-01 11:32:00,32.9,-9.7,29.62,NNW,331,6.7,7.4,15,0.00,,FEW055,0.00,VWS V14.00,2013-02-01 16:32:00,
2013-02-01 11:37:00,32.7,-9.8,29.62,NW,319,2.7,3.1,15,0.00,,FEW055,0.00,VWS V14.00,2013-02-01 16:37:00,
2013-02-01 11:42:00,33.1,-9.5,29.62,NW,319,5.4,6.3,15,0.00,,FEW055,0.00,VWS V14.00,2013-02-01 16:42:00,
2013-02-01 11:47:00,33.1,-9.5,29.62,WNW,291,0.0,4.9,15,0.00,,FEW055,0.00,VWS V14.00,2013-02-01 16:47:00,
2013-02-01 11:52:00,33.1,-9.5,29.62,NW,313,5.4,6.7,15,0.00,,FEW055,0.00,VWS V14.00,2013-02-01 16:52:00,
2013-02-01 11:57:00,33.4,-9.2,29.62,WNW,284,3.6,6.3,15,0.00,,FEW055,0.00,VWS V14.00,2013-02-01 16:57:00,
2013-02-01 12:02:00,33.8,-8.9,29.62,NNW,329,4.5,4.5,15,0.00,,BKN110,0.00,VWS V14.00,2013-02-01 17:02:00,
2013-02-01 12:07:00,33.8,-8.9,29.62,West,272,7.8,7.8,15,0.00,,BKN110,0.00,VWS V14.00,2013-02-01 17:07:00,
2013-02-01 12:12:00,33.4,-9.2,29.62,NW,325,5.4,7.4,15,0.00,,BKN110,0.00,VWS V14.00,2013-02-01 17:12:00,
2013-02-01 12:17:00,33.1,-9.5,29.62,NW,320,3.6,4.0,15,0.00,,BKN110,0.00,VWS V14.00,2013-02-01 17:17:00,
2013-02-01 12:22:00,33.8,-8.9,29.62,NNW,335,0.0,3.6,15,0.00,,BKN110,0.00,VWS V14.00,2013-02-01 17:22:00,
2013-02-01 12:27:00,34.2,-8.6,29.62,WNW,296,3.1,5.4,15,0.00,,BKN110,0.00,VWS V14.00,2013-02-01 17:27:00,
2013-02-01 12:32:00,34.0,-8.8,29.62,WSW,240,0.0,6.3,15,0.00,,BKN110,0.00,VWS V14.00,2013-02-01 17:32:00,
2013-02-01 12:37:00,33.3,-9.4,29.59,NW,317,4.9,4.9,15,0.00,,BKN110,0.00,VWS V14.00,2013-02-01 17:37:00,
2013-02-01 12:42:00,33.1,-9.5,29.59,West,276,2.7,6.3,15,0.00,,BKN110,0.00,VWS V14.00,2013-02-01 17:42:00,
2013-02-01 12:47:00,33.1,-9.5,29.59,WNW,293,3.1,4.9,15,0.00,,BKN110,0.00,VWS V14.00,2013-02-01 17:47:00,
2013-02-01 12:52:00,32.7,-9.8,29.59,NNW,338,6.3,6.7,15,0.00,,BKN110,0.00,VWS V14.00,2013-02-01 17:52:00,
2013-02-01 12:57:00,32.2,-10.3,29.59,WNW,296,13.4,15.2,15,0.00,,BKN110,0.00,VWS V14.00,2013-02-01 17:57:00,
2013-02-01 13:02:00,32.0,-10.4,29.59,NNW,329,4.5,5.4,15,0.00,,BKN110,0.00,VWS V14.00,2013-02-01 18:02:00,
2013-02-01 13:07:00,32.0,-10.4,29.62,NNE,27,0.0,5.4,15,0.00,,BKN110,0.00,VWS V14.00,2013-02-01 18:07:00,
2013-02-01 13:12:00,31.3,-11.0,29.62,NW,318,2.7,4.9,15,0.00,,BKN110,0.00,VWS V14.00,2013-02-01 18:12:00,
2013-02-01 13:17:00,31.3,-11.0,29.62,NW,324,3.1,4.9,15,0.00,,BKN110,0.00,VWS V14.00,2013-02-01 18:17:00,
2013-02-01 13:22:00,32.2,-10.3,29.62,WNW,293,7.4,11.2,15,0.00,,BKN110,0.00,VWS V14.00,2013-02-01 18:22:00,
2013-02-01 13:27:00,32.5,-10.0,29.62,WNW,295,5.8,6.3,15,0.00,,BKN110,0.00,VWS V14.00,2013-02-01 18:27:00,
2013-02-01 13:32:00,32.5,-10.0,29.62,WNW,297,2.7,3.6,15,0.00,,BKN110,0.00,VWS V14.00,2013-02-01 18:32:00,
2013-02-01 13:37:00,33.1,-9.5,29.62,NW,313,4.9,10.5,15,0.00,,BKN110,0.00,VWS V14.00,2013-02-01 18:37:00,
2013-02-01 13:42:00,33.4,-9.2,29.62,WNW,301,4.5,8.3,15,0.00,,BKN110,0.00,VWS V14.00,2013-02-01 18:42:00,
2013-02-01 13:47:00,33.6,-9.1,29.62,WNW,292,7.4,8.3,15,0.00,,BKN110,0.00,VWS V14.00,2013-02-01 18:47:00,
2013-02-01 13:52:00,33.6,-9.1,29.62,WNW,282,3.1,6.9,15,0.00,,BKN110,0.00,VWS V14.00,2013-02-01 18:52:00,
2013-02-01 13:57:00,33.8,-8.9,29.62,NNW,331,4.0,6.7,15,0.00,,BKN110,0.00,VWS V14.00,2013-02-01 18:57:00,
2013-02-01 14:02:00,34.2,-8.6,29.62,West,263,5.4,5.4,15,0.00,,BKN110,0.00,VWS V14.00,2013-02-01 19:02:00,
2013-02-01 14:07:00,34.9,-9.5,29.62,NW,318,7.8,10.5,14,0.00,,BKN110,0.00,VWS V14.00,2013-02-01 19:07:00,
2013-02-01 14:12:00,34.7,-12.7,29.62,West,266,4.0,7.4,12,0.00,,BKN110,0.00,VWS V14.00,2013-02-01 19:12:00,
2013-02-01 14:17:00,33.8,-13.4,29.62,NW,308,4.0,13.4,12,0.00,,BKN110,0.00,VWS V14.00,2013-02-01 19:17:00,
2013-02-01 14:22:00,32.9,-12.6,29.65,NNW,334,5.8,9.2,13,0.00,,BKN110,0.00,VWS V14.00,2013-02-01 19:22:00,
2013-02-01 14:27:00,32.2,-13.1,29.65,West,272,3.1,6.3,13,0.00,,BKN110,0.00,VWS V14.00,2013-02-01 19:27:00,
2013-02-01 14:32:00,32.2,-13.1,29.65,NNE,12,3.1,4.9,13,0.00,,BKN110,0.00,VWS V14.00,2013-02-01 19:32:00,
2013-02-01 14:37:00,32.5,-12.8,29.65,WNW,302,4.9,5.4,13,0.00,,BKN110,0.00,VWS V14.00,2013-02-01 19:37:00,
2013-02-01 14:42:00,32.9,-9.7,29.65,NW,322,9.2,9.2,15,0.00,,BKN110,0.00,VWS V14.00,2013-02-01 19:42:00,
2013-02-01 14:47:00,33.1,-9.5,29.65,WNW,297,7.4,7.4,15,0.00,,BKN110,0.00,VWS V14.00,2013-02-01 19:47:00,
2013-02-01 14:52:00,32.7,-9.8,29.65,WNW,294,4.9,5.4,15,0.00,,BKN110,0.00,VWS V14.00,2013-02-01 19:52:00,
2013-02-01 14:57:00,32.5,-10.0,29.65,NNW,336,4.5,6.7,15,0.00,,BKN110,0.00,VWS V14.00,2013-02-01 19:57:00,
2013-02-01 15:02:00,32.5,-10.0,29.65,NW,310,4.0,4.5,15,0.00,,BKN110,0.00,VWS V14.00,2013-02-01 20:02:00,
2013-02-01 15:07:00,32.4,-13.0,29.65,NW,316,5.4,6.9,13,0.00,,BKN110,0.00,VWS V14.00,2013-02-01 20:07:00,
2013-02-01 15:12:00,32.0,-13.3,29.65,NW,321,7.8,7.8,13,0.00,,BKN110,0.00,VWS V14.00,2013-02-01 20:12:00,
2013-02-01 15:17:00,32.2,-13.1,29.65,WNW,284,5.8,9.2,13,0.00,,BKN110,0.00,VWS V14.00,2013-02-01 20:17:00,
2013-02-01 15:22:00,32.0,-13.3,29.68,NW,312,7.8,8.7,13,0.00,,BKN110,0.00,VWS V14.00,2013-02-01 20:22:00,
2013-02-01 15:27:00,32.0,-13.3,29.68,WNW,302,5.4,5.8,13,0.00,,BKN110,0.00,VWS V14.00,2013-02-01 20:27:00,
2013-02-01 15:32:00,32.0,-13.3,29.68,WNW,300,8.3,8.3,13,0.00,,BKN110,0.00,VWS V14.00,2013-02-01 20:32:00,
2013-02-01 15:37:00,31.8,-10.6,29.71,WNW,298,6.7,9.2,15,0.00,,BKN110,0.00,VWS V14.00,2013-02-01 20:37:00,
2013-02-01 15:42:00,31.3,-11.0,29.71,WNW,303,5.8,5.8,15,0.00,,BKN110,0.00,VWS V14.00,2013-02-01 20:42:00,
2013-02-01 15:47:00,31.3,-11.0,29.71,NNW,339,3.6,6.9,15,0.00,,BKN110,0.00,VWS V14.00,2013-02-01 20:47:00,
2013-02-01 15:52:00,31.3,-11.0,29.71,WNW,293,3.6,6.7,15,0.00,,BKN110,0.00,VWS V14.00,2013-02-01 20:52:00,
2013-02-01 15:57:00,30.9,-11.3,29.71,NW,317,6.3,7.4,15,0.00,,BKN110,0.00,VWS V14.00,2013-02-01 20:57:00,
2013-02-01 16:02:00,30.6,-11.6,29.71,WNW,290,5.4,6.7,15,0.00,,BKN110,0.00,VWS V14.00,2013-02-01 21:02:00,
2013-02-01 16:07:00,30.9,-11.3,29.71,WNW,301,6.9,10.5,15,0.00,,BKN110,0.00,VWS V14.00,2013-02-01 21:07:00,
2013-02-01 16:12:00,31.1,-11.1,29.71,NW,320,7.4,8.3,15,0.00,,BKN110,0.00,VWS V14.00,2013-02-01 21:12:00,
2013-02-01 16:17:00,30.9,-11.3,29.71,West,264,10.5,11.6,15,0.00,,BKN110,0.00,VWS V14.00,2013-02-01 21:17:00,
2013-02-01 16:22:00,30.4,-11.7,29.74,NNW,343,13.4,15.9,15,0.00,,BKN110,0.00,VWS V14.00,2013-02-01 21:22:00,
2013-02-01 16:27:00,29.7,-8.6,29.74,NNW,347,7.8,7.8,18,0.00,,BKN110,0.00,VWS V14.00,2013-02-01 21:27:00,
2013-02-01 16:32:00,29.3,-8.9,29.74,West,268,6.3,6.9,18,0.00,,BKN110,0.00,VWS V14.00,2013-02-01 21:32:00,
2013-02-01 16:37:00,29.3,-12.6,29.74,SW,230,3.6,6.9,15,0.00,,BKN110,0.00,VWS V14.00,2013-02-01 21:37:00,
2013-02-01 16:42:00,29.1,-11.5,29.74,WNW,287,4.5,5.4,16,0.00,,BKN110,0.00,VWS V14.00,2013-02-01 21:42:00,
2013-02-01 16:47:00,28.9,-11.6,29.74,NW,321,5.4,6.3,16,0.00,,BKN110,0.00,VWS V14.00,2013-02-01 21:47:00,
2013-02-01 16:52:00,29.1,-11.5,29.74,West,259,6.3,8.7,16,0.55,,BKN110,0.55,VWS V14.00,2013-02-01 21:52:00,
2013-02-01 16:57:00,29.1,-11.5,29.74,WNW,294,4.5,5.4,16,0.63,,BKN110,0.63,VWS V14.00,2013-02-01 21:57:00,
2013-02-01 17:02:00,29.3,-12.6,29.74,NW,307,6.7,6.7,15,0.63,,BKN110,0.63,VWS V14.00,2013-02-01 22:02:00,
2013-02-01 17:07:00,29.7,-12.3,29.77,NW,307,4.0,5.8,15,0.63,,BKN110,0.63,VWS V14.00,2013-02-01 22:07:00,
2013-02-01 17:12:00,29.1,-11.5,29.77,West,281,5.4,6.3,16,0.63,,BKN110,0.63,VWS V14.00,2013-02-01 22:12:00,
2013-02-01 17:17:00,28.8,-11.8,29.77,NW,307,5.8,5.8,16,0.63,,BKN110,0.63,VWS V14.00,2013-02-01 22:17:00,
2013-02-01 17:22:00,28.8,-11.8,29.77,NNW,330,3.1,3.6,16,0.63,,BKN110,0.63,VWS V14.00,2013-02-01 22:22:00,
2013-02-01 17:27:00,28.9,-11.6,29.77,NW,318,4.5,4.5,16,0.63,,BKN110,0.63,VWS V14.00,2013-02-01 22:27:00,
2013-02-01 17:32:00,28.9,-11.6,29.77,NW,309,4.5,4.5,16,0.63,,BKN110,0.63,VWS V14.00,2013-02-01 22:32:00,
2013-02-01 17:37:00,28.9,-11.6,29.77,NNW,332,4.0,6.9,16,0.63,,BKN110,0.63,VWS V14.00,2013-02-01 22:37:00,
2013-02-01 17:42:00,28.8,-11.8,29.77,NW,324,4.0,5.4,16,0.63,,BKN110,0.63,VWS V14.00,2013-02-01 22:42:00,
2013-02-01 17:47:00,28.9,-11.6,29.77,NW,309,4.9,5.4,16,0.63,,BKN110,0.63,VWS V14.00,2013-02-01 22:47:00,
2013-02-01 17:52:00,28.8,-11.8,29.80,WNW,296,6.9,8.7,16,0.08,,BKN110,0.63,VWS V14.00,2013-02-01 22:52:00,
2013-02-01 17:57:00,28.4,-12.1,29.80,WNW,302,5.4,5.4,16,0.00,,BKN110,0.63,VWS V14.00,2013-02-01 22:57:00,
2013-02-01 18:02:00,28.0,-12.4,29.80,NW,324,2.7,4.9,16,0.00,,BKN110,0.63,VWS V14.00,2013-02-01 23:02:00,
2013-02-01 18:07:00,28.0,-12.4,29.80,NNW,327,5.4,8.7,16,0.00,,BKN110,0.63,VWS V14.00,2013-02-01 23:07:00,
2013-02-01 18:12:00,27.5,-12.8,29.80,NW,324,9.2,11.0,16,0.00,,BKN110,0.63,VWS V14.00,2013-02-01 23:12:00,
2013-02-01 18:17:00,27.7,-12.6,29.80,WNW,294,2.7,4.9,16,0.00,,BKN110,0.63,VWS V14.00,2013-02-01 23:17:00,
2013-02-01 18:22:00,27.9,-12.5,29.83,NW,316,0.0,3.1,16,0.00,,BKN110,0.63,VWS V14.00,2013-02-01 23:22:00,
2013-02-01 18:27:00,27.3,-12.9,29.83,WNW,301,6.7,6.7,16,0.00,,BKN110,0.63,VWS V14.00,2013-02-01 23:27:00,
2013-02-01 18:32:00,27.3,-12.9,29.83,NW,315,3.6,4.5,16,0.00,,BKN110,0.63,VWS V14.00,2013-02-01 23:32:00,
2013-02-01 18:37:00,27.3,-12.9,29.83,WNW,288,4.9,6.7,16,0.00,,BKN110,0.63,VWS V14.00,2013-02-01 23:37:00,
2013-02-01 18:42:00,27.5,-15.4,29.83,NW,324,4.5,4.9,14,0.00,,BKN110,0.63,VWS V14.00,2013-02-01 23:42:00,
2013-02-01 18:47:00,27.5,-12.8,29.83,WSW,250,0.0,4.0,16,0.00,,BKN110,0.63,VWS V14.00,2013-02-01 23:47:00,
2013-02-01 18:52:00,27.1,-15.7,29.85,NW,305,6.9,6.9,14,0.00,,BKN110,0.63,VWS V14.00,2013-02-01 23:52:00,
2013-02-01 18:57:00,27.0,-15.9,29.85,WNW,303,5.8,6.7,14,0.00,,BKN110,0.63,VWS V14.00,2013-02-01 23:57:00,
2013-02-01 19:02:00,26.8,-16.0,29.85,NW,309,2.7,4.0,14,0.00,,BKN110,0.63,VWS V14.00,2013-02-02 00:02:00,
2013-02-01 19:07:00,26.8,-16.0,29.85,NW,326,3.6,6.3,14,0.00,,BKN110,0.63,VWS V14.00,2013-02-02 00:07:00,
2013-02-01 19:12:00,27.0,-15.9,29.85,NW,317,3.1,3.6,14,0.00,,BKN110,0.63,VWS V14.00,2013-02-02 00:12:00,
2013-02-01 19:17:00,27.0,-15.9,29.85,NW,310,0.0,0.0,14,0.00,,BKN110,0.63,VWS V14.00,2013-02-02 00:17:00,
2013-02-01 19:22:00,26.6,-16.2,29.85,WNW,283,7.4,7.4,14,0.00,,BKN110,0.63,VWS V14.00,2013-02-02 00:22:00,
2013-02-01 19:27:00,26.6,-16.2,29.85,WNW,297,5.4,6.3,14,0.00,,BKN110,0.63,VWS V14.00,2013-02-02 00:27:00,
2013-02-01 19:32:00,26.6,-16.2,29.85,NW,313,3.6,4.5,14,0.00,,BKN110,0.63,VWS V14.00,2013-02-02 00:32:00,
2013-02-01 19:37:00,26.4,-16.3,29.85,NW,304,5.4,6.7,14,0.00,,BKN110,0.63,VWS V14.00,2013-02-02 00:37:00,
2013-02-01 19:42:00,26.6,-16.2,29.85,WNW,297,3.1,4.0,14,0.00,,BKN110,0.63,VWS V14.00,2013-02-02 00:42:00,
2013-02-01 19:47:00,26.8,-16.0,29.85,NW,321,3.1,3.6,14,0.00,,BKN110,0.63,VWS V14.00,2013-02-02 00:47:00,
2013-02-01 19:52:00,26.8,-13.4,29.85,West,281,0.0,0.0,16,0.00,,BKN110,0.63,VWS V14.00,2013-02-02 00:52:00,
2013-02-01 19:57:00,26.4,-13.7,29.85,West,280,2.7,4.0,16,0.00,,BKN110,0.63,VWS V14.00,2013-02-02 00:57:00,
2013-02-01 20:02:00,26.2,-13.8,29.85,NW,308,3.6,4.0,16,0.00,,BKN110,0.63,VWS V14.00,2013-02-02 01:02:00,
2013-02-01 20:07:00,26.2,-13.8,29.85,West,281,0.0,2.7,16,0.00,,BKN110,0.63,VWS V14.00,2013-02-02 01:07:00,
2013-02-01 20:12:00,26.2,-13.8,29.85,NNW,331,0.0,0.0,16,0.00,,BKN110,0.63,VWS V14.00,2013-02-02 01:12:00,
2013-02-01 20:17:00,26.1,-16.6,29.85,NW,310,5.4,5.8,14,0.00,,BKN110,0.63,VWS V14.00,2013-02-02 01:17:00,
2013-02-01 20:22:00,26.1,-16.6,29.88,WNW,292,3.1,3.6,14,0.00,,BKN110,0.63,VWS V14.00,2013-02-02 01:22:00,
2013-02-01 20:27:00,25.9,-16.8,29.88,WNW,292,2.7,2.7,14,0.00,,BKN110,0.63,VWS V14.00,2013-02-02 01:27:00,
2013-02-01 20:32:00,25.7,-16.9,29.88,WNW,283,2.7,3.1,14,0.00,,BKN110,0.63,VWS V14.00,2013-02-02 01:32:00,
2013-02-01 20:38:00,25.9,-14.1,29.88,NW,304,0.0,0.0,16,0.00,,BKN110,0.63,VWS V14.00,2013-02-02 01:38:00,
2013-02-01 20:43:00,25.7,-14.3,29.88,NW,317,0.0,0.0,16,0.00,,BKN110,0.63,VWS V14.00,2013-02-02 01:43:00,
2013-02-01 20:48:00,25.7,-13.1,29.88,WNW,282,0.0,0.0,17,0.00,,BKN110,0.63,VWS V14.00,2013-02-02 01:48:00,
2013-02-01 20:53:00,25.5,-13.2,29.88,WNW,302,3.6,3.6,17,0.00,,BKN110,0.63,VWS V14.00,2013-02-02 01:53:00,
2013-02-01 20:58:00,25.7,-13.1,29.88,NW,324,0.0,0.0,17,0.00,,BKN110,0.63,VWS V14.00,2013-02-02 01:58:00,
2013-02-01 21:03:00,25.7,-13.1,29.88,WNW,290,0.0,2.7,17,0.00,,BKN110,0.63,VWS V14.00,2013-02-02 02:03:00,
2013-02-01 21:08:00,25.5,-13.2,29.88,WNW,299,3.1,4.9,17,0.00,,BKN110,0.63,VWS V14.00,2013-02-02 02:08:00,
2013-02-01 21:13:00,25.5,-13.2,29.88,NW,312,0.0,3.1,17,0.00,,BKN110,0.63,VWS V14.00,2013-02-02 02:13:00,
2013-02-01 21:18:00,25.5,-13.2,29.88,WNW,298,0.0,0.0,17,0.00,,BKN110,0.63,VWS V14.00,2013-02-02 02:18:00,
2013-02-01 21:23:00,25.5,-13.2,29.91,WNW,298,0.0,0.0,17,0.00,,BKN110,0.63,VWS V14.00,2013-02-02 02:23:00,
2013-02-01 21:28:00,25.3,-13.4,29.91,WNW,298,0.0,0.0,17,0.00,,BKN110,0.63,VWS V14.00,2013-02-02 02:28:00,
2013-02-01 21:33:00,25.2,-13.5,29.91,WNW,298,0.0,0.0,17,0.00,,BKN110,0.63,VWS V14.00,2013-02-02 02:33:00,
2013-02-01 21:38:00,25.0,-13.7,29.91,SW,225,0.0,0.0,17,0.00,,BKN110,0.63,VWS V14.00,2013-02-02 02:38:00,
2013-02-01 21:43:00,25.0,-13.7,29.91,South,172,0.0,2.7,17,0.00,,BKN110,0.63,VWS V14.00,2013-02-02 02:43:00,
2013-02-01 21:48:00,24.8,-13.8,29.91,SW,228,0.0,0.0,17,0.00,,BKN110,0.63,VWS V14.00,2013-02-02 02:48:00,
2013-02-01 21:53:00,24.6,-14.0,29.91,ESE,122,0.0,0.0,17,0.00,,BKN110,0.63,VWS V14.00,2013-02-02 02:53:00,
2013-02-01 21:58:00,24.6,-14.0,29.91,ESE,122,0.0,0.0,17,0.00,,BKN110,0.63,VWS V14.00,2013-02-02 02:58:00,
2013-02-01 22:03:00,24.4,-14.1,29.91,ESE,122,0.0,0.0,17,0.00,,BKN110,0.63,VWS V14.00,2013-02-02 03:03:00,
2013-02-01 22:08:00,24.4,-14.1,29.91,ESE,122,0.0,0.0,17,0.00,,BKN110,0.63,VWS V14.00,2013-02-02 03:08:00,
2013-02-01 22:13:00,24.3,-14.3,29.91,ESE,122,0.0,0.0,17,0.00,,BKN110,0.63,VWS V14.00,2013-02-02 03:13:00,
2013-02-01 22:18:00,24.3,-14.3,29.91,West,264,0.0,0.0,17,0.00,,BKN110,0.63,VWS V14.00,2013-02-02 03:18:00,
2013-02-01 22:23:00,24.4,-14.1,29.91,West,264,0.0,0.0,17,0.00,,BKN110,0.63,VWS V14.00,2013-02-02 03:23:00,
2013-02-01 22:28:00,24.1,-14.4,29.91,West,264,0.0,0.0,17,0.00,,BKN110,0.63,VWS V14.00,2013-02-02 03:28:00,
2013-02-01 22:33:00,23.9,-12.4,29.91,West,264,0.0,0.0,19,0.00,,BKN110,0.63,VWS V14.00,2013-02-02 03:33:00,
2013-02-01 22:38:00,23.9,-11.3,29.91,West,264,0.0,0.0,20,0.00,,BKN110,0.63,VWS V14.00,2013-02-02 03:38:00,
2013-02-01 22:43:00,23.7,-11.5,29.91,NE,46,0.0,0.0,20,0.00,,BKN110,0.63,VWS V14.00,2013-02-02 03:43:00,
2013-02-01 22:48:00,23.5,-11.6,29.91,ENE,69,0.0,0.0,20,0.00,,BKN110,0.63,VWS V14.00,2013-02-02 03:48:00,
2013-02-01 22:53:00,23.5,-11.6,29.91,West,276,0.0,0.0,20,0.00,,BKN110,0.63,VWS V14.00,2013-02-02 03:53:00,
2013-02-01 22:58:00,23.7,-11.5,29.91,NW,317,0.0,0.0,20,0.00,,BKN110,0.63,VWS V14.00,2013-02-02 03:58:00,
2013-02-01 23:03:00,23.7,-11.5,29.91,NNE,30,0.0,0.0,20,0.00,,BKN110,0.63,VWS V14.00,2013-02-02 04:03:00,
2013-02-01 23:08:00,23.7,-11.5,29.91,NNE,30,0.0,0.0,20,0.00,,BKN110,0.63,VWS V14.00,2013-02-02 04:08:00,
2013-02-01 23:13:00,23.7,-11.5,29.91,WNW,290,0.0,0.0,20,0.00,,BKN110,0.63,VWS V14.00,2013-02-02 04:13:00,
2013-02-01 23:18:00,23.7,-11.5,29.91,WNW,290,0.0,0.0,20,0.00,,BKN110,0.63,VWS V14.00,2013-02-02 04:18:00,
2013-02-01 23:23:00,23.7,-11.5,29.94,WNW,290,0.0,0.0,20,0.00,,BKN110,0.63,VWS V14.00,2013-02-02 04:23:00,
2013-02-01 23:28:00,23.5,-11.6,29.94,WNW,290,0.0,0.0,20,0.00,,BKN110,0.63,VWS V14.00,2013-02-02 04:28:00,
2013-02-01 23:33:00,23.4,-11.8,29.94,WNW,290,0.0,0.0,20,0.00,,BKN110,0.63,VWS V14.00,2013-02-02 04:33:00,
2013-02-01 23:38:00,23.4,-11.8,29.94,ENE,77,0.0,0.0,20,0.00,,BKN110,0.63,VWS V14.00,2013-02-02 04:38:00,
2013-02-01 23:43:00,23.5,-11.6,29.94,West,263,0.0,0.0,20,0.00,,BKN110,0.63,VWS V14.00,2013-02-02 04:43:00,
2013-02-01 23:48:00,23.4,-11.8,29.94,SSW,210,0.0,0.0,20,0.00,,BKN110,0.63,VWS V14.00,2013-02-02 04:48:00,
2013-02-01 23:53:00,23.2,-11.9,29.94,WNW,285,0.0,3.1,20,0.00,,BKN110,0.63,VWS V14.00,2013-02-02 04:53:00,
2013-02-01 23:58:00,23.5,-11.6,29.94,West,270,2.7,3.1,20,0.00,,BKN110,0.63,VWS V14.00,2013-02-02 04:58:00,